TimeCDT,TemperatureF,Dew PointF,Humidity,Sea Level PressureIn,VisibilityMPH,Wind Direction,Wind SpeedMPH,Gust SpeedMPH,PrecipitationIn,Events,Conditions,WindDirDegrees,DateUTC
12:15 AM,-9999,-9999,N/A,30.15,7.0,Calm,Calm,-,N/A,,Clear,0,2012-10-09 05:15:00
12:35 AM,-9999,-9999,N/A,30.15,7.0,Calm,Calm,-,N/A,,Clear,0,2012-10-09 05:35:00
12:55 AM,-9999,-9999,N/A,30.15,7.0,Calm,Calm,-,N/A,,Clear,0,2012-10-09 05:55:00
1:15 AM,-9999,-9999,N/A,30.15,7.0,Calm,Calm,-,N/A,,Clear,0,2012-10-09 06:15:00
1:35 AM,-9999,-9999,N/A,30.15,7.0,Calm,Calm,-,N/A,,Clear,0,2012-10-09 06:35:00
1:55 AM,-9999,-9999,N/A,30.14,5.0,Calm,Calm,-,N/A,,Haze,0,2012-10-09 06:55:00
2:15 AM,-9999,-9999,N/A,30.14,7.0,Calm,Calm,-,N/A,,Clear,0,2012-10-09 07:15:00
2:35 AM,-9999,-9999,N/A,30.14,7.0,Calm,Calm,-,N/A,,Clear,0,2012-10-09 07:35:00
3:15 AM,-9999,-9999,N/A,30.14,5.0,Calm,Calm,-,N/A,,Haze,0,2012-10-09 08:15:00
3:35 AM,-9999,-9999,N/A,30.14,7.0,Calm,Calm,-,N/A,,Clear,0,2012-10-09 08:35:00
3:55 AM,-9999,-9999,N/A,30.13,5.0,Calm,Calm,-,N/A,,Haze,0,2012-10-09 08:55:00
4:15 AM,-9999,-9999,N/A,30.12,5.0,Calm,Calm,-,N/A,,Haze,0,2012-10-09 09:15:00
4:35 AM,-9999,-9999,N/A,30.13,5.0,Calm,Calm,-,N/A,,Haze,0,2012-10-09 09:35:00
4:55 AM,-9999,-9999,N/A,30.13,7.0,Calm,Calm,-,N/A,,Clear,0,2012-10-09 09:55:00
5:15 AM,-9999,-9999,N/A,30.13,7.0,Calm,Calm,-,N/A,,Clear,0,2012-10-09 10:15:00
5:35 AM,-9999,-9999,N/A,30.14,5.0,Calm,Calm,-,N/A,,Haze,0,2012-10-09 10:35:00
6:15 AM,-9999,-9999,N/A,30.15,7.0,Calm,Calm,-,N/A,,Clear,0,2012-10-09 11:15:00
6:35 AM,-9999,-9999,N/A,30.15,5.0,Calm,Calm,-,N/A,,Haze,0,2012-10-09 11:35:00
6:55 AM,-9999,-9999,N/A,30.15,7.0,Calm,Calm,-,N/A,,Clear,0,2012-10-09 11:55:00
7:15 AM,-9999,-9999,N/A,30.15,5.0,Calm,Calm,-,N/A,,Haze,0,2012-10-09 12:15:00
7:35 AM,-9999,-9999,N/A,30.15,5.0,Calm,Calm,-,N/A,,Haze,0,2012-10-09 12:35:00
7:55 AM,-9999,-9999,N/A,30.15,5.0,Calm,Calm,-,N/A,,Haze,0,2012-10-09 12:55:00
8:15 AM,-9999,-9999,N/A,30.16,7.0,Calm,Calm,-,N/A,,Clear,0,2012-10-09 13:15:00
8:35 AM,-9999,-9999,N/A,30.16,10.0,Calm,Calm,-,N/A,,Clear,0,2012-10-09 13:35:00
8:55 AM,-9999,-9999,N/A,30.16,10.0,Calm,Calm,-,N/A,,Clear,0,2012-10-09 13:55:00
9:15 AM,-9999,-9999,N/A,30.16,10.0,Calm,Calm,-,N/A,,Clear,0,2012-10-09 14:15:00
9:35 AM,-9999,-9999,N/A,30.16,10.0,Calm,Calm,-,N/A,,Clear,0,2012-10-09 14:35:00
9:55 AM,59.5,54.1,82,30.17,10.0,Calm,Calm,-,N/A,,Clear,0,2012-10-09 14:55:00
10:15 AM,61.3,52.7,73,30.17,10.0,SSE,3.5,-,N/A,,Clear,150,2012-10-09 15:15:00
10:35 AM,62.6,51.3,66,30.16,10.0,SSE,3.5,-,N/A,,Clear,160,2012-10-09 15:35:00
10:55 AM,64.0,51.8,64,30.16,10.0,SSW,6.9,-,N/A,,Clear,200,2012-10-09 15:55:00
11:15 AM,64.6,52.2,64,30.15,10.0,SSE,4.6,-,N/A,,Clear,150,2012-10-09 16:15:00
11:35 AM,67.1,52.9,60,30.15,10.0,SSE,4.6,-,N/A,,Clear,160,2012-10-09 16:35:00
11:55 AM,67.6,52.9,59,30.14,10.0,Calm,Calm,-,N/A,,Clear,0,2012-10-09 16:55:00
12:15 PM,68.4,53.6,59,30.13,10.0,WSW,5.8,-,N/A,,Clear,240,2012-10-09 17:15:00
12:35 PM,69.1,53.8,58,30.12,10.0,SW,5.8,-,N/A,,Clear,230,2012-10-09 17:35:00
12:55 PM,70.2,53.6,56,30.11,10.0,Calm,Calm,-,N/A,,Clear,0,2012-10-09 17:55:00
1:15 PM,71.4,53.2,53,30.10,10.0,Calm,Calm,-,N/A,,Clear,0,2012-10-09 18:15:00
1:35 PM,72.1,51.4,48,30.09,10.0,SSW,4.6,-,N/A,,Clear,200,2012-10-09 18:35:00
1:55 PM,73.2,54.1,51,30.07,10.0,Calm,Calm,-,N/A,,Clear,0,2012-10-09 18:55:00
2:15 PM,74.1,54.7,51,30.06,10.0,WSW,5.8,-,N/A,,Clear,250,2012-10-09 19:15:00
2:35 PM,74.1,55.4,52,30.05,10.0,West,4.6,-,N/A,,Clear,280,2012-10-09 19:35:00
2:55 PM,74.3,55.4,52,30.04,10.0,Calm,Calm,-,N/A,,Clear,0,2012-10-09 19:55:00
3:15 PM,75.0,56.5,52,30.04,10.0,South,6.9,-,N/A,,Clear,180,2012-10-09 20:15:00
3:35 PM,74.7,56.1,52,30.03,10.0,South,4.6,-,N/A,,Clear,190,2012-10-09 20:35:00
3:55 PM,74.8,56.1,52,30.02,10.0,South,5.8,-,N/A,,Clear,170,2012-10-09 20:55:00
4:15 PM,75.2,56.8,53,30.01,10.0,ESE,3.5,-,N/A,,Clear,120,2012-10-09 21:15:00
4:35 PM,75.4,57.2,53,30.00,10.0,Calm,Calm,-,N/A,,Clear,0,2012-10-09 21:35:00
4:55 PM,74.8,57.2,54,29.99,10.0,Calm,Calm,-,N/A,,Clear,0,2012-10-09 21:55:00
5:15 PM,74.7,57.4,55,29.99,10.0,Calm,Calm,-,N/A,,Clear,0,2012-10-09 22:15:00
5:55 PM,73.2,58.3,59,29.98,10.0,Calm,Calm,-,N/A,,Clear,0,2012-10-09 22:55:00
6:15 PM,71.8,59.0,64,29.98,10.0,Calm,Calm,-,N/A,,Clear,0,2012-10-09 23:15:00
6:35 PM,68.5,60.1,74,29.98,10.0,Calm,Calm,-,N/A,,Clear,0,2012-10-09 23:35:00
6:55 PM,65.5,60.3,83,29.98,10.0,Calm,Calm,-,N/A,,Clear,0,2012-10-09 23:55:00
7:15 PM,64.9,60.3,85,29.98,10.0,Calm,Calm,-,N/A,,Clear,0,2012-10-10 00:15:00
7:35 PM,64.8,59.5,83,29.99,10.0,Calm,Calm,-,N/A,,Clear,0,2012-10-10 00:35:00
7:55 PM,63.1,60.4,91,29.99,10.0,Calm,Calm,-,N/A,,Clear,0,2012-10-10 00:55:00
8:15 PM,-9999,-9999,N/A,30.00,10.0,Calm,Calm,-,N/A,,Clear,0,2012-10-10 01:15:00
8:35 PM,-9999,-9999,N/A,30.00,10.0,Calm,Calm,-,N/A,,Mostly Cloudy,0,2012-10-10 01:35:00
8:55 PM,-9999,-9999,N/A,30.01,10.0,Calm,Calm,-,N/A,,Overcast,0,2012-10-10 01:55:00
9:15 PM,-9999,-9999,N/A,30.02,10.0,Calm,Calm,-,N/A,,Overcast,0,2012-10-10 02:15:00
9:35 PM,67.3,61.3,81,30.03,10.0,Calm,Calm,-,N/A,,Overcast,0,2012-10-10 02:35:00
9:55 PM,67.1,63.3,88,30.04,10.0,Calm,Calm,-,N/A,,Overcast,0,2012-10-10 02:55:00
10:15 PM,66.6,66.6,100,30.05,10.0,Calm,Calm,-,N/A,,Overcast,0,2012-10-10 03:15:00
10:35 PM,66.7,64.0,91,30.05,10.0,Calm,Calm,-,N/A,,Overcast,0,2012-10-10 03:35:00
10:55 PM,67.1,62.4,85,30.05,10.0,Calm,Calm,-,N/A,,Overcast,0,2012-10-10 03:55:00
11:15 PM,66.9,62.6,86,30.06,10.0,Calm,Calm,-,N/A,,Overcast,0,2012-10-10 04:15:00
11:35 PM,66.7,63.7,90,30.06,10.0,Calm,Calm,-,N/A,,Overcast,0,2012-10-10 04:35:00
11:55 PM,66.7,65.1,95,30.06,10.0,Calm,Calm,-,N/A,,Overcast,0,2012-10-10 04:55:00